DELTA 1 DEB

Satellite information

Favourite Embed

Satellite Type and Status

DEBRISIN ORBIT

Key statistics

Satellite DELTA 1 DEB at a glance.

Uptime

17450

Days in orbit

Revolutions

≈ 14.0

Per day

Orbit

SSO

Sun Synchronous Orbit

Inclination

99.2

Latest

Satellite identification and parameters

Extended collection of information and parameters for DELTA 1 DEB.

Object identification

Identified? True

Debris? True

Object name: DELTA 1 DEB

International designator: 1978-026BQ

Object number (NORAD): 12223

Object ID (CCSDS): 12223

Country: UNITED STATES OF AMERICA (US)

Current information (Y/N): Y

RCS size: SMALL

Orbital parameters

Period: 102.559 minutes

Inclination: 99.1941 deg

SMA: 7257.853 km

Apoapsis: 908.559 km

Periapsis: 850.878 km

RAAN: 12.0571 deg

Eccentricy: 0.00397365

Argument of periapsis: 267.788 deg

Mean anomaly: 91.8735 deg

Mean motion: 14.04075524 rev/day

Mean motion (dot): 0.0000011 rev/day2

B* drag term: 0.000098308884 1/REarth

Two-line elements (TLE)

Creation date: Dec. 12, 2025, 10:14 a.m.

Reference frame: TEME

Reference center: EARTH

Epoch: Dec. 12, 2025, 1:27 a.m. UTC

TLE line 0: 0 DELTA 1 DEB

TLE line 1: 1 12223U 78026BQ 25346.06093244 .00000110 00000-0 98309-4 0 9996

TLE line 2: 2 12223 99.1941 12.0571 0039736 267.7880 91.8735 14.04075524296627

Live tracking on map

Real-time ground track for satellite DELTA 1 DEB.

In-orbit conjunctions

A list of the most updated potential collisions computed for object DELTA 1 DEB.

Target Orbit TCA Probability of collision Miss distance Type
FENGYUN 1C DEB SSO 2025-11-19 07:28:26 0.0001320216 315.0 (m) DEBRIS
THOR ABLESTAR R/B LEO 2025-05-03 20:13:48 0.0001526636 128.0 (m) ROCKET BODY
METEOR 2-6 LEO 2025-02-21 22:35:59 0.0001476725 111.0 (m) PAYLOAD
THORAD AGENA D DEB SSO 2024-11-23 16:11:31 0.0001263813 218.0 (m) DEBRIS

Associated space launch

Earth observation satellite

DELTA 1 DEB was lifted into orbit during the mission ‘Delta 2910 | Landsat 3’, on board a Delta 2910 space rocket.

The launch took place on March 5, 1978, 5:54 p.m. from Space Launch Complex 2W.

For more information about the launch, click the button.

Launch to space Delta 2910 | Landsat 3
Delta 2910 | Landsat 3

Agency: N/A

Status: Launch Successful

Launch date: March 5, 1978, 5:54 p.m. UTC

Rocket: Delta 2910

Launch pad: Space Launch Complex 2W

Location: Vandenberg SFB, CA, USA

...

Latest news about this satellite

There are no fresh news available about this satellite. Check back as we update our databases every day.


Newsletter sign-up

Weekly statistics, charts and insights to help you stay on top of the space industry.